Tracking 18850 objects as of 22-Nov-2017
HD Live streaming from Space Station
objects crossing your sky now

COSMOS 773

Track COSMOS 773 now!
10-day predictions
COSMOS 773 is classified as:


NORAD ID: 8343
Int'l Code: 1975-094A
Perigee: 774.0 km
Apogee: 790.9 km
Inclination: 74.1 °
Period: 100.4 minutes
Semi major axis: 7153 km
RCS: 3.1365 m2 (large)
Launch date: September 30, 1975
Source: Commonwealth of Independent States (former USSR) (CIS)
Launch site: PLESETSK MISSILE AND SPACE COMPLEX (PKMTR)
aabbcc
Your satellite tracking list
Your tracking list is empty




NASA's NSSDC Master Catalog

Two Line Element Set (TLE):
1  8343U 75094A   17326.44149728 +.00000011 +00000-0 +13153-4 0  9990
2  8343 074.0547 325.7026 0011841 205.6342 154.4225 14.34921928203550
Source of the keplerian elements: AFSPC